Location: ??
(35.5052°N, 139.7262°E)
Time: 03:47:56
(UTC+00:00)

SPOT 1/Viking Rocket - Pass Details

Date: 20 June 2021
Orbit: 778 x 793 km, 98.4° (Epoch: 26 July)

Event Time Altitude Azimuth Distance (km) Brightness Sun altitude
Exits shadow 12:17:31 29° 201° (SSW) 1,382 4.5 -21.8°
Maximum altitude 12:19:49 50° 260° (W) 983 4.1 -22.0°
Drops below altitude 10° 12:24:48 10° 336° (NNW) 2,334 7.1 -22.6°
Sets 12:27:12 0° 341° (NNW) 3,266 8.1 -22.9°
